SCP
0 0 0 0 0 0 0 0 0 0 0 0 0 0 0 0 0 0 0 0 0 0 0 0 0 0 -0 -0 -0 0 0 0 0 0 0 0 0 0
0 0 0 0 0 0 0 0 0 0 0 0 0 0 0 0 0 0 0 0 0 0 0 0 0 -0 0 0 0 -0 0 0 0 0 0 0 0 0
0 0 0 0 0 0 0 0 0 0 0 0 0 0 0 0 0 0 0 0 0 0 0 0 0 0 0 0 0 0 0 0 0 0 0 0 0 0
0 0 0 0 0 0 0 0 0 0 0 0 0 0 0 0 0 0 0 0 0 0 0 0 0 0 0 0 0 0 0 0 0 0 0 0 0 0
0 0 0 0 0 0 0 0 0 0 0 0 0 0 0 0 0 0 0 0 0 0 0 0 0 0 0 0 0 0 0 0 0 0 0 0 0 0
0 0 0 0 0 0 0 0 0 0 0 0 0 0 0 0 -0 0 0 0 0 0 0 0 0 0 0 0 0 0 0 0 0 0 0 0 0 0
0 0 0 0 0 0 0 0 0 0 0 0 0 0 0 0 0 0 0 0 0 0 0 0 0 0 0 0 0 0 0 0 0 0 0 0 0 0
0 0 0 0 0 0 0 0 0 0 0 0 0 0 0 0 0 0 0 0 0 0 0 0 0 0 0 0 0 0 0 0 0 0 0 0 0 0
-0 0 0 0 0 0 0 0 0 0 0 0 0 0 0 0 0 0 0 0 0 0 0 0 0 0 0 0 0 0 0 0 0 0 0 0 0 0
-0 -0 -0 0 0 0 0 0 0 0 0 0 0 0 0 0 0 0 0 0 0 -0 0 0 0 0 0 0 0 0 0 0 0 0 0 0 0 0
-0 -0 0 0 0 0 0 0 0 0 0 0 0 0 0 0 0 0 0 0 0 0 0 0 0 0 0 0 0 0 0 0 0 0 0 0 0 0
-0 -0 -0 -0 0 0 0 0 0 0 0 0 0 0 0 0 0 0 0 0 0 0 0 0 0 0 0 0 0 0 0 0 0 0 0 0 0 0
0 0 0 0 0 0 0 0 0 0 0 0 0 0 0 0 0 0 0 0 0 0 0 0 0 0 0 0 0 0 -0 0 0 0 0 0 0 0
0 0 0 -0 0 0 0 0 0 0 0 0 0 0 0 0 0 0 0 0 0 0 0 0 0 0 0 0 0 0 0 0 0 0 0 0 0 0
0 0 0 0 0 0 0 0 0 0 0 0 0 0 0 0 0 0 0 0 0 0 0 0 0 0 0 0 0 -0 0 0 0 0 0 0 0 0
0 0 0 0 0 0 0 0 0 0 0 0 0 0 0 0 0 0 0 0 0 0 0 0 0 0 0 0 0 0 0 0 0 0 0 0 0 0
0 0 0 0 0 0 0 0 0 0 0 0 0 0 0 0 0 0 0 0 0 0 0 0 0 0 0 0 0 0 0 0 0 0 0 0 0 0
0 0 0 0 0 0 0 0 0 0 0 0 0 0 0 0 0 0 0 0 0 0 0 0 0 0 0 0 0 0 0 0 0 0 0 0 0 0
0 0 0 0 0 0 0 0 0 0 0 0 0 0 0 0 0 0 0 0 0 0 0 0 0 0 0 0 0 0 0 0 0 0 -0 0 0 0
0 0 0 0 0 0 0 0 0 0 0 0 0 0 0 0 0 0 0 0 0 0 0 0 0 0 0 0 0 0 0 0 0 0 0 0 0 0
-0 0 0 0 0 0 0 0 0 0 0 0 0 0 0 0 0 0 0 0 0 0 0 0 0 0 0 0 0 0 0 0 0 0 0 0 0 0
0 -0 -0 0 0 0 0 0 0 0 0 0 0 0 0 0 0 0 0 0 0 0 0 0 0 0 0 0 0 0 0 0 0 0 0 0 0 0
-0 0 0 0 0 0 0 0 0 0 0 0 0 0 0 0 0 0 0 0 0 0 0 0 0 0 0 0 0 0 0 0 0 0 0 0 -0 -0
Wind_Speed_500mb
19 16 16 18 18 19 18 18 14 6 19 19 16 20 20 22 19 23 24 25 24 22 23 23 24 22 24 24 25 24 28 32 39 44 46 53 49 52
20 17 15 16 13 11 12 13 14 15 15 23 24 20 21 20 19 20 19 18 18 16 15 16 15 11 15 19 22 24 25 24 28 34 39 42 41 42
16 15 17 16 13 13 14 11 10 15 15 15 15 18 15 13 14 9 10 13 14 15 14 15 10 10 14 14 15 16 19 19 26 30 33 39 43 40
11 9 5 5 7 10 10 12 12 7 5 5 10 11 6 8 7 9 11 10 11 13 12 13 12 13 17 21 23 24 27 26 30 29 35 37 38 41
20 15 14 9 12 17 16 9 12 16 14 10 11 2 7 6 8 13 21 24 24 24 24 23 19 20 20 19 26 29 30 30 33 33 32 36 34 34
28 14 18 20 23 25 28 30 17 5 6 7 8 9 17 21 24 26 28 24 20 17 19 23 27 31 33 34 31 35 36 36 37 36 37 37 36 33
26 17 16 19 20 21 25 29 27 29 27 22 21 24 32 31 34 34 33 33 25 23 24 20 22 22 22 24 29 32 36 36 36 37 38 39 35 34
28 20 12 16 18 17 21 23 25 31 36 39 32 29 32 30 32 37 38 48 52 36 43 31 29 28 28 27 25 27 29 28 28 26 33 40 36 41
38 29 16 14 15 14 16 18 19 24 24 27 31 25 27 30 32 35 34 33 42 44 36 36 35 33 33 21 22 22 27 30 30 30 35 37 37 39
33 35 36 31 25 19 20 22 22 22 19 22 27 27 26 27 28 34 34 33 31 37 42 39 39 36 23 13 10 13 18 16 16 18 23 30 35 37
25 26 30 29 33 29 15 15 18 16 19 22 26 25 28 30 23 33 31 35 38 38 41 40 44 43 24 25 33 26 23 23 25 29 30 28 31 31
17 19 23 27 24 20 18 19 17 18 17 18 21 30 27 25 31 34 33 28 33 34 41 37 35 41 30 30 36 21 22 26 28 30 28 27 31 33
10 13 17 20 17 17 20 14 17 19 18 17 20 23 25 30 30 33 33 28 28 27 33 36 34 38 32 43 40 37 32 26 25 25 23 18 18 22
5 7 9 17 10 16 21 17 17 18 21 19 24 28 30 28 30 28 33 29 28 25 29 29 30 31 30 30 47 55 32 18 20 20 21 19 17 14
5 2 5 8 9 13 18 19 17 21 24 27 26 33 29 24 26 28 33 33 21 21 23 28 30 23 29 35 39 42 41 23 17 16 15 14 10 14
6 2 1 4 9 11 12 20 18 23 23 25 27 24 31 26 28 34 43 45 39 27 25 26 26 23 22 28 32 37 34 26 22 17 16 20 22 18
7 5 3 3 8 9 12 18 17 19 20 24 26 22 30 33 31 31 41 51 43 36 44 37 32 20 19 25 29 36 35 24 23 20 16 14 18 17
4 1 1 11 9 8 13 15 17 21 20 21 25 26 32 33 34 31 35 45 49 40 45 51 34 26 25 22 26 29 32 27 26 24 22 19 13 10
3 6 12 6 6 9 15 15 14 15 16 19 23 25 27 32 31 31 31 34 42 45 46 49 38 28 28 29 22 27 35 29 26 26 18 19 16 16
8 16 5 5 7 12 19 13 10 13 17 18 16 20 26 32 30 29 32 32 37 40 41 45 44 42 38 35 37 31 33 33 33 30 29 22 19 17
14 11 5 2 10 14 17 19 12 19 19 14 7 11 22 33 34 30 29 30 30 32 36 36 37 37 40 40 41 40 31 30 32 32 31 30 31 17
5 6 7 4 9 19 18 13 15 11 13 15 9 11 16 21 30 38 30 31 37 29 36 38 33 31 35 41 44 45 42 32 28 29 29 30 32 27
10 7 6 2 15 26 12 13 17 15 11 10 8 9 15 22 24 24 28 32 30 31 31 35 39 36 27 31 38 41 42 32 37 41 26 30 27 25
Wind_Direction_500mb
93 94 89 83 76 68 64 61 64 85 56 49 49 41 41 42 49 48 51 48 36 27 22 15 7 355 340 314 295 287 279 269 268 262 257 266 264 265
63 61 65 59 63 53 53 56 69 71 62 60 55 46 54 54 60 49 53 37 31 18 5 2 349 345 357 350 351 351 339 333 329 320 307 301 294 272
35 30 39 28 32 36 33 32 44 74 86 69 58 74 77 74 69 58 14 7 357 341 327 326 324 322 325 324 314 300 296 303 310 306 307 299 293 293
21 342 18 5 9 21 12 18 6 0 34 98 98 55 31 44 13 348 337 332 323 318 320 314 300 286 286 289 294 280 283 278 298 294 297 298 289 277
42 46 59 41 45 43 33 46 66 79 93 119 112 11 327 322 298 303 300 299 292 289 286 284 289 276 274 274 283 286 286 280 283 287 297 297 297 289
34 55 55 58 60 59 55 56 56 56 61 56 42 7 353 344 345 337 333 337 338 327 302 293 289 284 275 276 278 277 276 280 276 279 286 292 283 282
37 56 54 52 52 52 48 52 60 60 58 51 42 36 32 28 22 16 13 16 18 340 331 324 308 303 297 288 277 273 277 279 279 278 283 288 286 281
46 52 58 49 41 34 42 50 53 54 46 41 44 41 35 30 24 16 16 19 11 352 348 348 336 331 316 297 287 280 282 286 284 277 278 280 278 283
53 53 45 38 27 26 46 57 55 38 33 22 29 24 22 17 15 16 19 21 12 5 356 8 0 3 339 319 295 299 289 283 291 290 283 285 291 288
58 56 50 49 51 63 74 65 55 38 33 25 25 25 16 7 6 3 2 3 7 8 6 4 3 8 11 14 12 339 325 314 300 306 306 298 294 293
49 53 46 43 51 50 41 54 46 33 21 21 19 14 12 12 10 355 352 351 2 8 5 2 3 3 17 23 352 313 306 300 294 292 286 307 290 291
51 31 28 29 19 23 35 46 37 29 21 9 356 8 15 15 9 5 4 4 4 4 0 349 1 2 345 341 351 344 326 322 308 298 291 290 304 301
321 25 8 3 5 12 2 46 37 30 18 8 8 12 15 13 10 12 4 353 353 356 355 353 353 354 359 347 355 347 329 316 310 313 309 307 294 318
303 0 342 355 41 28 42 37 31 9 8 1 8 7 5 13 17 12 8 3 353 346 342 346 349 349 352 355 355 349 354 323 306 300 311 306 295 306
316 348 313 18 48 32 34 31 18 8 11 11 11 9 13 8 6 10 6 2 0 338 341 348 355 354 0 355 353 358 359 4 351 336 318 311 303 330
176 163 2 66 30 24 24 8 355 359 14 16 17 23 25 26 16 20 21 16 14 16 353 344 346 345 351 355 356 357 5 357 349 341 332 334 333 315
134 150 8 79 15 34 15 1 6 4 22 23 21 28 29 29 20 18 17 14 12 11 8 11 2 351 347 355 6 1 1 1 4 350 328 324 323 317
137 2 158 85 33 32 14 5 4 359 8 20 21 17 21 10 10 23 17 16 15 17 11 7 12 19 16 21 11 10 7 9 8 351 348 343 318 331
127 34 110 50 49 25 3 356 352 3 2 4 7 15 20 19 19 20 9 14 16 16 15 16 26 23 11 359 9 11 8 13 9 10 354 349 357 350
154 147 84 74 28 351 342 334 330 326 348 355 3 15 17 22 14 8 5 6 13 10 11 15 18 23 21 11 4 13 2 6 8 13 8 2 334 331
139 131 38 96 336 352 345 333 346 337 340 351 347 12 20 24 10 5 2 8 359 1 3 1 9 19 15 10 8 10 15 359 359 359 2 4 359 348
32 272 243 213 341 342 334 342 337 358 2 6 71 42 24 30 31 35 33 16 6 355 359 5 1 358 359 359 1 360 0 8 8 358 359 356 353 345
17 71 119 311 327 340 343 348 348 336 354 16 95 48 51 45 33 17 25 27 9 9 359 353 2 357 358 6 5 358 349 352 359 352 340 334 348 349
Wind_Speed_850mb
19 16 16 18 18 19 18 18 14 6 19 19 16 20 20 22 19 23 24 25 24 22 23 23 24 22 24 24 25 24 28 32 39 44 46 53 49 52
20 17 15 16 13 11 12 13 14 15 15 23 24 20 21 20 19 20 19 18 18 16 15 16 15 11 15 19 22 24 25 24 28 34 39 42 41 42
16 15 17 16 13 13 14 11 10 15 15 15 15 18 15 13 14 9 10 13 14 15 14 15 10 10 14 14 15 16 19 19 26 30 33 39 43 40
11 9 5 5 7 10 10 12 12 7 5 5 10 11 6 8 7 9 11 10 11 13 12 13 12 13 17 21 23 24 27 26 30 29 35 37 38 41
20 15 14 9 12 17 16 9 12 16 14 10 11 2 7 6 8 13 21 24 24 24 24 23 19 20 20 19 26 29 30 30 33 33 32 36 34 34
28 14 18 20 23 25 28 30 17 5 6 7 8 9 17 21 24 26 28 24 20 17 19 23 27 31 33 34 31 35 36 36 37 36 37 37 36 33
26 17 16 19 20 21 25 29 27 29 27 22 21 24 32 31 34 34 33 33 25 23 24 20 22 22 22 24 29 32 36 36 36 37 38 39 35 34
28 20 12 16 18 17 21 23 25 31 36 39 32 29 32 30 32 37 38 48 52 36 43 31 29 28 28 27 25 27 29 28 28 26 33 40 36 41
38 29 16 14 15 14 16 18 19 24 24 27 31 25 27 30 32 35 34 33 42 44 36 36 35 33 33 21 22 22 27 30 30 30 35 37 37 39
33 35 36 31 25 19 20 22 22 22 19 22 27 27 26 27 28 34 34 33 31 37 42 39 39 36 23 13 10 13 18 16 16 18 23 30 35 37
25 26 30 29 33 29 15 15 18 16 19 22 26 25 28 30 23 33 31 35 38 38 41 40 44 43 24 25 33 26 23 23 25 29 30 28 31 31
17 19 23 27 24 20 18 19 17 18 17 18 21 30 27 25 31 34 33 28 33 34 41 37 35 41 30 30 36 21 22 26 28 30 28 27 31 33
10 13 17 20 17 17 20 14 17 19 18 17 20 23 25 30 30 33 33 28 28 27 33 36 34 38 32 43 40 37 32 26 25 25 23 18 18 22
5 7 9 17 10 16 21 17 17 18 21 19 24 28 30 28 30 28 33 29 28 25 29 29 30 31 30 30 47 55 32 18 20 20 21 19 17 14
5 2 5 8 9 13 18 19 17 21 24 27 26 33 29 24 26 28 33 33 21 21 23 28 30 23 29 35 39 42 41 23 17 16 15 14 10 14
6 2 1 4 9 11 12 20 18 23 23 25 27 24 31 26 28 34 43 45 39 27 25 26 26 23 22 28 32 37 34 26 22 17 16 20 22 18
7 5 3 3 8 9 12 18 17 19 20 24 26 22 30 33 31 31 41 51 43 36 44 37 32 20 19 25 29 36 35 24 23 20 16 14 18 17
4 1 1 11 9 8 13 15 17 21 20 21 25 26 32 33 34 31 35 45 49 40 45 51 34 26 25 22 26 29 32 27 26 24 22 19 13 10
3 6 12 6 6 9 15 15 14 15 16 19 23 25 27 32 31 31 31 34 42 45 46 49 38 28 28 29 22 27 35 29 26 26 18 19 16 16
8 16 5 5 7 12 19 13 10 13 17 18 16 20 26 32 30 29 32 32 37 40 41 45 44 42 38 35 37 31 33 33 33 30 29 22 19 17
14 11 5 2 10 14 17 19 12 19 19 14 7 11 22 33 34 30 29 30 30 32 36 36 37 37 40 40 41 40 31 30 32 32 31 30 31 17
5 6 7 4 9 19 18 13 15 11 13 15 9 11 16 21 30 38 30 31 37 29 36 38 33 31 35 41 44 45 42 32 28 29 29 30 32 27
10 7 6 2 15 26 12 13 17 15 11 10 8 9 15 22 24 24 28 32 30 31 31 35 39 36 27 31 38 41 42 32 37 41 26 30 27 25
Wind_Direction_850mb
93 94 89 83 76 68 64 61 64 85 56 49 49 41 41 42 49 48 51 48 36 27 22 15 7 355 340 314 295 287 279 269 268 262 257 266 264 265
63 61 65 59 63 53 53 56 69 71 62 60 55 46 54 54 60 49 53 37 31 18 5 2 349 345 357 350 351 351 339 333 329 320 307 301 294 272
35 30 39 28 32 36 33 32 44 74 86 69 58 74 77 74 69 58 14 7 357 341 327 326 324 322 325 324 314 300 296 303 310 306 307 299 293 293
21 342 18 5 9 21 12 18 6 0 34 98 98 55 31 44 13 348 337 332 323 318 320 314 300 286 286 289 294 280 283 278 298 294 297 298 289 277
42 46 59 41 45 43 33 46 66 79 93 119 112 11 327 322 298 303 300 299 292 289 286 284 289 276 274 274 283 286 286 280 283 287 297 297 297 289
34 55 55 58 60 59 55 56 56 56 61 56 42 7 353 344 345 337 333 337 338 327 302 293 289 284 275 276 278 277 276 280 276 279 286 292 283 282
37 56 54 52 52 52 48 52 60 60 58 51 42 36 32 28 22 16 13 16 18 340 331 324 308 303 297 288 277 273 277 279 279 278 283 288 286 281
46 52 58 49 41 34 42 50 53 54 46 41 44 41 35 30 24 16 16 19 11 352 348 348 336 331 316 297 287 280 282 286 284 277 278 280 278 283
53 53 45 38 27 26 46 57 55 38 33 22 29 24 22 17 15 16 19 21 12 5 356 8 0 3 339 319 295 299 289 283 291 290 283 285 291 288
58 56 50 49 51 63 74 65 55 38 33 25 25 25 16 7 6 3 2 3 7 8 6 4 3 8 11 14 12 339 325 314 300 306 306 298 294 293
49 53 46 43 51 50 41 54 46 33 21 21 19 14 12 12 10 355 352 351 2 8 5 2 3 3 17 23 352 313 306 300 294 292 286 307 290 291
51 31 28 29 19 23 35 46 37 29 21 9 356 8 15 15 9 5 4 4 4 4 0 349 1 2 345 341 351 344 326 322 308 298 291 290 304 301
321 25 8 3 5 12 2 46 37 30 18 8 8 12 15 13 10 12 4 353 353 356 355 353 353 354 359 347 355 347 329 316 310 313 309 307 294 318
303 0 342 355 41 28 42 37 31 9 8 1 8 7 5 13 17 12 8 3 353 346 342 346 349 349 352 355 355 349 354 323 306 300 311 306 295 306
316 348 313 18 48 32 34 31 18 8 11 11 11 9 13 8 6 10 6 2 0 338 341 348 355 354 0 355 353 358 359 4 351 336 318 311 303 330
176 163 2 66 30 24 24 8 355 359 14 16 17 23 25 26 16 20 21 16 14 16 353 344 346 345 351 355 356 357 5 357 349 341 332 334 333 315
134 150 8 79 15 34 15 1 6 4 22 23 21 28 29 29 20 18 17 14 12 11 8 11 2 351 347 355 6 1 1 1 4 350 328 324 323 317
137 2 158 85 33 32 14 5 4 359 8 20 21 17 21 10 10 23 17 16 15 17 11 7 12 19 16 21 11 10 7 9 8 351 348 343 318 331
127 34 110 50 49 25 3 356 352 3 2 4 7 15 20 19 19 20 9 14 16 16 15 16 26 23 11 359 9 11 8 13 9 10 354 349 357 350
154 147 84 74 28 351 342 334 330 326 348 355 3 15 17 22 14 8 5 6 13 10 11 15 18 23 21 11 4 13 2 6 8 13 8 2 334 331
139 131 38 96 336 352 345 333 346 337 340 351 347 12 20 24 10 5 2 8 359 1 3 1 9 19 15 10 8 10 15 359 359 359 2 4 359 348
32 272 243 213 341 342 334 342 337 358 2 6 71 42 24 30 31 35 33 16 6 355 359 5 1 358 359 359 1 360 0 8 8 358 359 356 353 345
17 71 119 311 327 340 343 348 348 336 354 16 95 48 51 45 33 17 25 27 9 9 359 353 2 357 358 6 5 358 349 352 359 352 340 334 348 349